CZ-6A DEB

Satellite information

Favourite Embed

Satellite Type and Status

DEBRISIN ORBIT

Key statistics

Satellite CZ-6A DEB at a glance.

Uptime

1023

Days in orbit

Revolutions

≈ 14.3

Per day

Orbit

SSO

Sun Synchronous Orbit

Inclination

98.8

Latest

Satellite identification and parameters

Extended collection of information and parameters for CZ-6A DEB.

Object identification

Identified? True

Debris? True

Object name: CZ-6A DEB

International designator: 2022-151AP

Object number (NORAD): 54296

Object ID (CCSDS): 54296

Country: PEOPLES REPUBLIC OF CHINA (PRC)

Current information (Y/N): Y

RCS size: SMALL

Orbital parameters

Period: 100.577 minutes

Inclination: 98.808 deg

SMA: 7164.067 km

Apoapsis: 808.078 km

Periapsis: 763.787 km

RAAN: 274.5652 deg

Eccentricy: 0.00309121

Argument of periapsis: 168.0079 deg

Mean anomaly: 192.1847 deg

Mean motion: 14.31737067 rev/day

Mean motion (dot): 0.00001779 rev/day2

B* drag term: 0.00067997313 1/REarth

Two-line elements (TLE)

Creation date: Aug. 27, 2025, 8:01 p.m.

Reference frame: TEME

Reference center: EARTH

Epoch: Aug. 27, 2025, 2:26 p.m. UTC

TLE line 0: 0 CZ-6A DEB

TLE line 1: 1 54296U 22151AP 25239.60207259 .00001779 00000-0 67997-3 0 9994

TLE line 2: 2 54296 98.8080 274.5652 0030912 168.0079 192.1847 14.31737067145009

Live tracking on map

Real-time ground track for satellite CZ-6A DEB.

In-orbit conjunctions

A list of the most updated potential collisions computed for object CZ-6A DEB.

Target Orbit TCA Probability of collision Miss distance Type
COSMOS 1190 LEO 2025-02-07 12:15:25 0.001587727 99.0 (m) PAYLOAD

Associated space launch

Chinese satellite reported for atmospheric/ocean/environmental/spatial parameter research purposes, details TBD.

CZ-6A DEB was lifted into orbit during the mission ‘Long March 6A | Yunhai 3’, on board a Long March 6A space rocket.

The launch took place on Nov. 11, 2022, 10:52 p.m. from Launch Complex 9A.

For more information about the launch, click the button.

Launch to space Long March 6A | Yunhai 3
Long March 6A | Yunhai 3

Agency: N/A

Status: Launch Successful

Launch date: Nov. 11, 2022, 10:52 p.m. UTC

Rocket: Long March 6A

Launch pad: Launch Complex 9A

Location: Taiyuan Satellite Launch Center, People's Republic of China

...

Latest news about this satellite

There are no fresh news available about this satellite. Check back as we update our databases every day.


Newsletter sign-up

Weekly statistics, charts and insights to help you stay on top of the space industry.